Temperature
-4 -5 -6 -7 -8 -8 -9 -10 -10 -11 -11 -11 -11 -11 -11 -11 -11 -11 -11 -11 -10 -10 -10 -10 -10 -10 -9 -9 -9 -9 -8 -8 -8 -7 -6 -6 -6 -5 -4 -3 -2 -0 1
-4 -5 -6 -7 -8 -9 -9 -10 -10 -11 -11 -11 -11 -11 -11 -11 -11 -11 -11 -11 -11 -11 -11 -10 -10 -10 -10 -9 -9 -9 -9 -8 -8 -8 -7 -7 -6 -5 -4 -3 -2 -0 1
-5 -5 -6 -7 -8 -8 -9 -10 -10 -11 -11 -11 -12 -11 -11 -11 -11 -11 -11 -11 -11 -11 -11 -11 -11 -10 -10 -10 -9 -9 -9 -9 -8 -8 -8 -7 -6 -5 -4 -3 -2 -0 1
-5 -5 -6 -7 -8 -8 -9 -9 -10 -11 -11 -12 -12 -12 -11 -11 -11 -11 -11 -11 -11 -11 -12 -12 -11 -11 -10 -10 -10 -9 -9 -9 -9 -8 -8 -7 -7 -6 -5 -3 -2 -1 1
-5 -5 -6 -7 -7 -8 -9 -9 -10 -10 -11 -11 -12 -12 -11 -11 -10 -11 -11 -11 -11 -12 -12 -12 -12 -11 -11 -10 -10 -10 -10 -10 -9 -9 -8 -8 -7 -7 -6 -4 -3 -1 0
-5 -5 -6 -7 -7 -8 -8 -9 -9 -10 -11 -11 -11 -11 -11 -11 -11 -10 -11 -11 -12 -12 -12 -12 -12 -12 -11 -11 -11 -11 -11 -10 -10 -10 -9 -9 -8 -8 -6 -5 -4 -2 0
-5 -5 -6 -7 -7 -8 -8 -9 -9 -10 -10 -11 -11 -11 -11 -11 -11 -11 -11 -11 -12 -12 -13 -13 -12 -12 -11 -11 -11 -11 -11 -11 -11 -11 -10 -10 -9 -8 -7 -6 -4 -3 -1
-5 -5 -6 -6 -7 -7 -8 -8 -9 -9 -10 -10 -11 -11 -11 -11 -11 -11 -11 -11 -11 -12 -12 -13 -13 -12 -11 -11 -12 -12 -11 -11 -11 -11 -11 -10 -9 -9 -8 -6 -5 -3 -2
-5 -5 -6 -6 -6 -7 -7 -8 -9 -9 -9 -10 -11 -11 -11 -11 -10 -11 -10 -11 -11 -12 -12 -12 -13 -12 -12 -11 -12 -12 -12 -11 -11 -11 -10 -10 -9 -8 -8 -6 -5 -4 -2
-5 -5 -5 -6 -6 -7 -7 -8 -8 -9 -9 -10 -10 -10 -10 -10 -10 -10 -10 -10 -11 -11 -12 -12 -13 -12 -12 -12 -12 -12 -12 -12 -11 -10 -10 -9 -9 -8 -7 -6 -5 -4 -3
-4 -5 -5 -5 -6 -6 -6 -7 -8 -8 -9 -10 -10 -10 -10 -10 -10 -10 -10 -10 -11 -11 -12 -12 -13 -13 -13 -13 -13 -13 -12 -12 -12 -11 -11 -10 -9 -8 -7 -6 -5 -4 -3
-4 -5 -5 -5 -5 -6 -6 -6 -7 -8 -8 -10 -10 -10 -10 -10 -10 -10 -10 -10 -11 -11 -12 -12 -13 -13 -13 -13 -13 -13 -13 -12 -12 -12 -11 -11 -9 -8 -7 -6 -5 -4 -3
-4 -4 -5 -5 -5 -5 -6 -6 -6 -7 -8 -10 -10 -10 -10 -10 -10 -10 -10 -10 -11 -11 -12 -12 -13 -13 -13 -13 -13 -13 -13 -13 -13 -12 -12 -11 -10 -9 -7 -6 -4 -4 -3
-4 -4 -4 -5 -5 -5 -5 -6 -6 -7 -8 -10 -11 -11 -11 -10 -10 -10 -10 -10 -11 -11 -12 -12 -13 -13 -13 -13 -13 -13 -13 -13 -13 -13 -12 -11 -10 -9 -7 -6 -4 -3 -3
-4 -4 -4 -4 -5 -5 -5 -6 -6 -7 -8 -10 -10 -11 -11 -11 -10 -10 -10 -11 -11 -11 -12 -12 -12 -13 -13 -13 -13 -13 -13 -13 -13 -13 -12 -11 -10 -9 -8 -6 -5 -4 -3
-4 -4 -4 -4 -4 -5 -5 -5 -6 -6 -7 -8 -9 -10 -11 -11 -11 -11 -11 -11 -11 -11 -11 -12 -12 -13 -13 -13 -13 -13 -13 -13 -13 -12 -12 -11 -11 -10 -8 -7 -6 -4 -3
-3 -4 -4 -4 -5 -5 -5 -5 -6 -6 -7 -7 -8 -8 -10 -11 -11 -11 -11 -11 -11 -11 -11 -12 -12 -12 -13 -13 -13 -13 -13 -13 -13 -12 -12 -11 -11 -10 -9 -8 -7 -5 -4
-3 -4 -4 -4 -5 -5 -5 -6 -6 -6 -7 -7 -8 -8 -9 -10 -10 -10 -10 -10 -10 -11 -11 -12 -12 -12 -12 -12 -12 -13 -13 -13 -13 -12 -12 -12 -11 -11 -10 -9 -8 -7 -6
-3 -4 -4 -5 -5 -5 -6 -6 -6 -7 -7 -7 -7 -8 -8 -9 -10 -10 -10 -10 -11 -11 -11 -11 -12 -12 -12 -12 -12 -12 -12 -12 -12 -12 -12 -12 -12 -11 -11 -10 -9 -8 -7
-3 -4 -4 -5 -5 -5 -6 -6 -6 -7 -7 -7 -8 -8 -8 -9 -10 -10 -10 -11 -11 -11 -11 -11 -11 -11 -11 -11 -11 -11 -12 -12 -12 -12 -12 -12 -12 -11 -11 -11 -10 -9 -8
-3 -4 -4 -5 -5 -5 -6 -6 -6 -7 -7 -8 -8 -8 -9 -9 -10 -10 -10 -11 -11 -11 -11 -11 -11 -11 -11 -11 -11 -11 -11 -11 -12 -12 -12 -12 -12 -12 -11 -11 -11 -10 -9
-3 -4 -4 -5 -5 -5 -6 -6 -6 -7 -7 -8 -8 -8 -9 -9 -10 -10 -10 -11 -11 -11 -10 -10 -10 -10 -10 -10 -10 -10 -11 -11 -11 -12 -12 -12 -12 -12 -12 -12 -11 -11 -10
-3 -4 -4 -5 -5 -5 -6 -6 -6 -7 -7 -8 -8 -8 -9 -9 -10 -10 -10 -10 -10 -10 -10 -10 -10 -10 -10 -10 -10 -10 -10 -10 -11 -11 -12 -12 -12 -12 -12 -12 -12 -11 -11
-3 -4 -4 -5 -5 -5 -6 -6 -7 -7 -7 -8 -8 -8 -9 -9 -9 -10 -10 -10 -10 -10 -10 -10 -10 -10 -10 -10 -10 -10 -10 -10 -10 -11 -11 -12 -12 -12 -12 -12 -12 -12 -12
-3 -3 -4 -4 -5 -5 -6 -6 -7 -7 -7 -8 -8 -8 -9 -9 -9 -10 -10 -10 -10 -10 -10 -10 -10 -10 -9 -9 -9 -10 -10 -10 -10 -11 -11 -12 -12 -12 -12 -12 -12 -12 -12
-3 -3 -4 -4 -5 -5 -6 -6 -6 -7 -7 -8 -8 -8 -9 -9 -9 -9 -10 -10 -10 -10 -10 -10 -10 -9 -9 -9 -9 -9 -10 -10 -10 -11 -11 -11 -12 -12 -12 -12 -12 -12 -12
Wind_Speed
6 8 9 9 10 11 10 12 13 14 16 16 17 17 17 17 16 15 15 15 14 14 13 12 12 12 10 9 9 9 9 10 12 14 13 14 15 14 13 12 12 12 11
6 8 8 9 10 10 11 12 14 14 15 16 17 16 16 16 16 15 15 15 14 15 15 14 14 12 13 11 10 10 10 11 12 15 14 13 15 14 13 14 11 10 10
6 7 8 9 10 11 11 12 13 14 14 15 16 16 16 16 15 13 12 13 13 14 14 14 15 14 15 13 13 11 10 11 11 12 13 12 11 11 12 12 11 9 9
6 7 8 9 10 10 11 11 12 13 13 14 15 15 16 15 14 11 10 11 12 13 14 14 15 14 15 15 13 13 12 12 12 11 11 11 10 10 9 8 8 7 7
6 7 8 9 10 10 11 11 12 12 13 14 15 15 16 14 13 11 7 11 12 13 14 14 15 17 20 16 13 14 13 11 11 10 10 10 9 9 8 7 8 8 8
6 7 8 8 9 10 10 11 12 12 13 13 14 15 16 14 21 20 11 10 11 12 13 14 16 16 20 19 19 18 16 13 12 10 9 10 10 10 9 9 8 6 5
6 7 8 8 9 10 10 11 11 12 12 13 13 14 15 17 23 22 16 11 11 11 12 13 13 15 19 14 15 17 16 16 15 11 11 11 11 11 11 11 9 8 7
7 7 7 8 9 10 11 11 12 11 12 12 13 14 14 16 22 23 19 11 10 11 12 13 15 16 17 17 14 14 13 12 13 10 10 11 11 11 11 10 11 11 11
7 7 7 8 9 10 11 11 11 11 12 12 12 13 14 16 21 23 20 10 10 11 11 12 15 16 22 24 16 15 15 13 13 16 15 13 14 14 11 8 7 6 5
7 7 8 8 9 10 11 12 11 11 11 12 12 13 13 14 19 23 21 10 9 10 11 12 15 19 23 23 16 15 16 15 14 13 13 12 10 10 11 7 6 6 4
6 7 8 9 9 10 11 11 11 11 12 12 12 12 13 14 17 20 21 10 8 9 10 10 12 21 22 22 19 15 18 16 13 12 11 10 9 7 7 7 6 6 5
6 7 8 8 8 8 10 11 11 10 11 11 12 12 11 13 15 18 20 16 13 8 9 10 12 20 20 20 17 20 21 17 11 11 10 10 10 10 9 9 8 7 8
6 7 7 8 8 8 9 10 9 8 8 10 10 11 11 12 14 18 15 15 16 10 8 12 16 18 17 14 18 21 17 12 12 11 11 11 10 11 10 8 7 6 6
6 6 6 7 7 7 7 7 7 7 8 10 10 11 11 12 12 12 10 10 12 10 8 11 14 14 13 14 14 14 12 12 12 11 12 11 11 10 9 9 7 6 4
6 6 6 6 6 6 6 6 7 7 8 10 10 10 11 12 15 20 14 11 11 11 10 8 8 9 10 10 11 11 12 12 12 12 12 12 11 11 10 9 8 6 4
6 5 4 4 5 5 6 6 5 7 10 11 11 12 11 15 20 19 18 17 16 16 11 8 9 9 10 10 11 11 11 12 12 12 12 12 12 12 11 10 9 7 6
7 5 4 4 4 5 5 6 7 6 7 7 10 12 14 17 17 18 17 16 14 13 9 9 9 9 9 9 9 9 10 11 11 11 12 12 12 12 11 10 10 9 7
8 7 6 4 4 4 4 5 5 7 8 7 8 10 14 16 15 15 16 12 9 10 9 9 9 9 8 8 8 8 9 10 10 11 11 12 12 12 11 11 10 11 8
8 6 5 4 4 4 4 4 5 6 6 7 7 8 13 14 12 12 12 8 8 9 9 9 9 9 8 8 7 7 8 8 9 10 10 11 11 11 11 11 10 13 10
8 10 7 5 4 4 3 3 4 5 5 6 7 7 10 10 8 9 8 8 8 9 9 10 10 9 9 8 7 6 6 7 8 8 9 10 10 10 11 12 11 10 9
8 8 10 6 5 4 4 3 3 4 5 5 6 7 11 8 7 8 8 8 8 9 10 10 10 10 9 8 7 6 6 5 5 6 7 8 9 9 9 10 10 9 9
8 7 7 6 5 5 4 3 3 4 4 5 6 6 10 7 6 7 7 8 8 8 9 9 9 9 9 8 7 6 5 5 4 4 5 7 7 8 9 9 10 9 8
9 9 8 7 6 6 5 4 3 3 4 4 5 6 6 6 6 7 8 8 8 9 10 10 10 10 10 10 8 6 5 4 3 2 3 5 6 7 7 8 10 10 9
11 10 9 8 7 6 5 5 4 3 3 4 4 5 6 6 7 8 8 8 9 9 11 11 11 13 15 12 10 7 6 5 4 2 1 2 4 5 6 7 8 9 8
11 11 10 9 8 7 6 5 4 4 3 3 4 4 5 6 7 7 8 8 10 10 12 14 12 14 17 16 13 9 7 8 7 5 3 1 2 4 5 6 7 7 8
12 12 10 9 8 8 7 6 5 5 4 3 4 4 5 6 6 7 7 8 10 11 12 13 15 18 19 16 14 12 7 7 11 10 6 3 2 2 3 4 6 7 8
Wind_Direction
316 317 317 319 320 320 319 321 323 324 326 327 328 329 330 331 331 332 335 336 334 332 331 325 323 320 315 306 301 298 292 289 291 297 299 301 302 299 296 291 285 278 270
310 311 314 317 320 321 321 322 323 324 327 327 328 329 330 330 330 328 334 338 338 336 336 334 329 328 326 324 317 309 306 302 298 298 300 303 303 303 299 293 284 271 264
303 307 311 317 321 322 322 322 323 325 326 328 329 329 327 328 329 325 334 337 339 339 338 336 333 331 332 332 326 321 316 310 301 297 299 302 303 305 306 297 285 270 264
297 302 309 317 320 319 319 320 323 324 326 328 327 326 325 326 325 320 335 338 340 340 338 337 333 330 330 333 332 331 327 317 309 303 301 305 307 314 310 307 302 291 273
290 298 306 312 315 315 316 319 321 323 325 325 325 325 325 326 324 329 339 344 345 342 340 338 333 334 334 337 337 336 332 324 317 312 308 309 315 323 324 319 312 305 279
280 287 295 304 310 312 315 317 319 321 323 324 324 324 324 324 325 338 353 346 349 345 340 337 334 334 335 337 338 338 335 330 326 319 312 312 316 319 320 318 315 308 285
267 277 288 296 302 307 311 314 318 320 320 319 319 320 320 321 326 333 344 343 346 345 340 338 337 336 339 335 339 339 333 332 330 324 312 312 312 317 317 314 313 307 291
264 271 278 287 296 303 309 312 317 317 316 314 316 318 319 320 325 328 335 334 336 340 339 337 335 337 338 349 345 338 333 330 328 322 314 312 311 313 310 303 298 297 285
256 266 276 282 290 299 305 311 316 315 313 312 315 319 320 321 323 324 332 324 330 335 336 337 337 340 344 352 349 341 337 338 335 330 326 320 319 316 319 313 306 297 285
251 266 278 285 290 297 304 310 313 313 310 313 315 319 318 317 318 322 328 323 328 331 335 337 339 345 349 353 352 346 343 342 337 333 331 329 326 321 324 316 303 297 293
252 270 280 286 292 298 301 306 309 310 310 313 316 320 320 320 321 322 328 336 331 330 334 337 339 346 350 352 354 351 348 346 338 336 334 336 335 332 327 318 298 281 281
248 268 280 289 294 294 302 307 311 313 313 317 320 323 324 326 326 326 333 342 342 333 333 336 339 345 349 351 354 354 354 352 347 345 344 345 342 339 332 321 306 283 263
245 266 281 291 294 297 304 309 315 319 318 319 321 323 327 329 331 335 341 344 345 344 334 335 339 345 347 348 352 356 357 355 353 351 349 345 340 335 333 331 324 308 281
244 266 282 291 298 305 307 309 315 317 319 321 326 329 329 332 339 347 353 350 348 347 340 335 339 343 347 349 352 355 357 357 355 351 347 344 343 345 350 349 346 343 330
237 258 278 288 298 305 309 311 311 310 316 323 327 327 330 333 341 350 357 355 353 354 344 339 346 348 352 354 354 356 357 357 356 353 352 351 352 354 355 356 356 356 2
225 244 266 285 298 308 315 316 307 307 321 329 331 332 330 334 341 349 354 355 354 355 351 347 348 348 349 350 351 353 355 357 356 354 355 356 356 356 358 360 5 7 9
214 228 250 268 288 304 314 320 325 327 325 333 341 341 340 342 347 349 352 351 352 356 354 349 347 344 343 344 346 348 350 352 352 354 357 357 357 359 2 4 7 7 8
208 219 234 251 269 284 298 308 314 322 329 336 341 343 344 347 349 352 354 352 352 356 350 345 342 339 338 338 340 343 345 349 354 355 357 359 359 1 4 6 9 8 6
199 207 216 233 247 264 280 295 306 314 319 325 332 341 344 344 347 354 357 356 348 344 342 339 338 335 332 332 332 334 338 345 351 352 357 359 0 2 5 5 6 9 14
199 206 211 221 230 244 259 282 304 315 320 325 333 338 337 340 346 348 351 347 342 337 335 333 332 331 329 326 325 326 331 339 348 353 356 359 1 4 5 5 7 9 13
189 195 205 213 221 230 243 265 291 306 314 320 325 328 337 337 335 336 338 337 335 331 329 327 326 326 326 323 319 317 318 327 340 348 353 358 1 4 6 7 9 13 16
183 186 191 202 209 217 230 245 269 290 306 315 321 326 334 334 330 330 330 329 328 325 323 321 320 321 321 319 314 309 306 310 324 338 349 356 359 5 9 14 14 16 21
183 184 189 196 203 212 221 231 248 273 296 311 317 323 329 331 328 326 325 325 324 323 323 321 318 319 322 318 308 293 284 285 288 310 337 354 1 8 14 18 20 22 26
184 187 191 193 197 205 213 221 233 254 281 300 311 319 323 324 321 320 321 321 322 321 322 321 317 318 322 322 314 294 265 249 226 209 255 357 8 10 18 22 26 27 30
184 187 191 194 196 201 206 213 223 237 258 280 298 310 316 317 317 317 320 321 322 321 322 322 320 322 323 321 317 305 273 229 207 185 169 133 50 28 27 29 32 38 38
185 188 191 193 196 199 202 207 214 224 241 261 280 297 307 311 313 314 317 320 324 321 320 321 321 323 323 321 318 314 279 217 196 183 168 151 113 71 47 45 45 47 50
Height
1549 1544 1539 1534 1529 1524 1518 1513 1507 1501 1495 1489 1483 1477 1471 1465 1458 1452 1446 1439 1432 1426 1420 1415 1409 1405 1400 1396 1393 1389 1386 1382 1377 1371 1368 1365 1362 1359 1357 1356 1355 1356 1357
1545 1541 1536 1532 1526 1521 1516 1510 1504 1499 1493 1487 1481 1475 1469 1463 1456 1451 1444 1438 1431 1425 1419 1413 1408 1404 1399 1395 1391 1387 1383 1379 1375 1369 1364 1361 1357 1354 1352 1351 1351 1351 1353
1542 1538 1534 1529 1524 1519 1513 1507 1502 1496 1490 1484 1479 1473 1467 1461 1455 1449 1443 1437 1430 1424 1418 1413 1408 1403 1398 1394 1389 1384 1380 1376 1371 1367 1361 1357 1354 1351 1348 1347 1347 1347 1348
1539 1535 1531 1526 1521 1516 1511 1505 1499 1493 1488 1482 1476 1470 1464 1459 1453 1447 1442 1435 1429 1423 1417 1412 1407 1402 1397 1392 1387 1382 1377 1373 1368 1364 1359 1355 1351 1348 1346 1344 1343 1344 1345
1536 1532 1528 1524 1519 1514 1508 1503 1497 1491 1485 1479 1473 1468 1462 1456 1451 1446 1440 1434 1428 1421 1416 1411 1406 1401 1396 1391 1386 1380 1375 1370 1365 1361 1357 1353 1349 1346 1343 1341 1341 1340 1341
1533 1529 1525 1521 1516 1511 1506 1500 1494 1489 1483 1477 1471 1465 1460 1455 1449 1445 1439 1433 1427 1421 1415 1409 1404 1399 1394 1389 1383 1378 1373 1368 1363 1359 1355 1351 1347 1344 1341 1340 1339 1339 1339
1529 1526 1522 1518 1513 1508 1503 1497 1492 1486 1481 1475 1469 1464 1458 1453 1448 1443 1438 1433 1427 1421 1415 1409 1403 1398 1392 1386 1380 1374 1369 1365 1360 1357 1352 1348 1345 1342 1340 1338 1337 1337 1336
1526 1523 1519 1515 1511 1506 1501 1495 1490 1484 1479 1473 1467 1462 1457 1451 1446 1441 1436 1431 1426 1420 1414 1409 1403 1397 1391 1386 1378 1372 1367 1362 1356 1352 1348 1345 1342 1339 1338 1336 1335 1334 1333
1522 1520 1516 1512 1508 1503 1498 1493 1487 1482 1476 1471 1466 1461 1456 1450 1445 1439 1434 1429 1424 1419 1414 1408 1403 1397 1391 1384 1377 1371 1365 1359 1353 1348 1344 1341 1338 1336 1335 1334 1333 1333 1332
1519 1516 1513 1509 1505 1500 1496 1490 1485 1480 1474 1469 1465 1460 1454 1449 1443 1438 1432 1427 1422 1417 1412 1407 1402 1397 1390 1384 1377 1371 1364 1357 1351 1345 1341 1338 1335 1333 1332 1331 1331 1331 1332
1515 1513 1510 1507 1503 1498 1493 1488 1483 1477 1472 1468 1463 1458 1453 1448 1442 1437 1431 1426 1421 1416 1411 1406 1400 1395 1389 1383 1377 1371 1365 1357 1350 1345 1340 1336 1333 1331 1330 1329 1329 1330 1331
1511 1509 1507 1504 1500 1496 1491 1486 1481 1476 1470 1465 1461 1456 1452 1447 1442 1436 1431 1426 1421 1415 1410 1405 1400 1394 1388 1382 1377 1371 1364 1357 1351 1346 1341 1336 1332 1330 1328 1328 1328 1328 1329
1507 1506 1504 1501 1498 1494 1489 1484 1479 1474 1468 1463 1459 1455 1450 1446 1441 1435 1430 1425 1420 1415 1410 1404 1399 1394 1388 1382 1377 1371 1364 1358 1352 1347 1342 1337 1333 1330 1328 1327 1327 1328 1329
1503 1502 1501 1498 1495 1492 1488 1483 1477 1472 1466 1462 1458 1454 1449 1445 1440 1435 1430 1424 1419 1414 1409 1404 1399 1394 1389 1384 1378 1372 1366 1361 1356 1350 1345 1340 1335 1331 1329 1327 1327 1328 1329
1499 1499 1498 1496 1493 1490 1486 1482 1476 1471 1466 1461 1456 1452 1448 1444 1440 1436 1431 1425 1420 1415 1409 1404 1400 1395 1390 1385 1380 1374 1369 1364 1358 1353 1347 1342 1337 1334 1331 1329 1329 1329 1330
1495 1495 1494 1493 1491 1488 1485 1481 1476 1471 1466 1460 1455 1451 1447 1444 1439 1434 1430 1425 1420 1415 1410 1405 1401 1396 1391 1387 1382 1377 1372 1367 1362 1356 1351 1346 1341 1337 1334 1332 1331 1331 1332
1491 1491 1490 1489 1488 1486 1483 1479 1475 1471 1466 1460 1455 1450 1445 1441 1437 1432 1428 1424 1420 1415 1411 1406 1402 1398 1393 1389 1385 1380 1376 1371 1366 1361 1355 1351 1346 1342 1339 1336 1335 1334 1335
1486 1486 1486 1486 1485 1483 1480 1477 1473 1468 1464 1460 1454 1449 1444 1440 1435 1431 1427 1424 1420 1416 1412 1408 1404 1399 1395 1391 1387 1383 1379 1374 1370 1365 1360 1356 1351 1347 1344 1341 1340 1338 1338
1480 1481 1482 1482 1481 1479 1477 1474 1471 1467 1463 1458 1453 1449 1444 1439 1435 1431 1427 1424 1420 1416 1413 1409 1405 1401 1397 1393 1389 1385 1382 1378 1374 1369 1365 1361 1356 1353 1349 1346 1344 1343 1342
1475 1476 1477 1478 1477 1476 1474 1472 1469 1466 1462 1457 1453 1448 1443 1438 1435 1431 1427 1424 1421 1417 1414 1410 1406 1402 1398 1395 1391 1387 1384 1380 1377 1373 1370 1366 1362 1358 1355 1352 1349 1347 1346
1469 1471 1472 1473 1473 1473 1471 1469 1467 1464 1460 1456 1452 1447 1443 1438 1434 1431 1427 1424 1421 1417 1414 1410 1407 1403 1399 1396 1392 1389 1386 1383 1380 1377 1374 1370 1367 1364 1361 1358 1355 1353 1351
1463 1465 1467 1468 1469 1469 1468 1466 1464 1462 1459 1455 1451 1447 1443 1438 1434 1430 1427 1424 1421 1418 1414 1411 1407 1404 1400 1396 1393 1390 1387 1384 1382 1380 1377 1374 1371 1369 1366 1363 1360 1358 1356
1457 1460 1462 1463 1464 1464 1464 1463 1461 1459 1457 1453 1450 1446 1442 1438 1433 1430 1426 1423 1420 1417 1414 1411 1407 1403 1400 1397 1393 1390 1388 1385 1383 1381 1379 1377 1375 1373 1370 1368 1366 1363 1362
1451 1453 1456 1458 1459 1460 1460 1459 1458 1456 1454 1451 1448 1444 1441 1436 1432 1429 1425 1422 1419 1416 1413 1410 1407 1403 1400 1396 1393 1390 1387 1385 1383 1382 1381 1379 1377 1376 1374 1372 1370 1369 1367
1444 1447 1449 1452 1453 1455 1455 1455 1455 1453 1451 1449 1446 1443 1439 1435 1431 1427 1424 1421 1418 1415 1412 1409 1405 1402 1398 1395 1392 1389 1386 1384 1383 1382 1381 1381 1380 1378 1377 1376 1374 1373 1372
1437 1440 1443 1446 1448 1449 1450 1451 1450 1449 1448 1446 1443 1440 1437 1433 1429 1426 1422 1419 1416 1413 1410 1407 1404 1400 1397 1393 1390 1387 1384 1383 1382 1381 1382 1381 1381 1381 1380 1379 1378 1377 1376